Time,TemperatureF,DewpointF,PressureIn,WindDirection,WindDirectionDegrees,WindSpeedMPH,WindSpeedGustMPH,Humidity,HourlyPrecipIn,Conditions,Clouds,dailyrainin,SoftwareType,DateUTC
2013-09-29 00:02:00,71.7,68.0,30.03,NW,314,1.0,1.0,88,0.00,,,0.00,Wunderground v.1.15,2013-09-29 05:02:00,
2013-09-29 00:08:00,71.1,67.7,30.03,North,356,1.0,4.0,89,0.00,,,0.00,Wunderground v.1.15,2013-09-29 05:08:00,
2013-09-29 00:14:00,70.7,67.6,30.03,North,5,1.0,2.0,90,0.00,,,0.00,Wunderground v.1.15,2013-09-29 05:14:00,
2013-09-29 00:19:00,70.4,67.6,30.02,North,6,1.0,2.0,91,0.00,,,0.00,Wunderground v.1.15,2013-09-29 05:19:00,
2013-09-29 00:25:00,70.2,67.4,30.02,North,356,1.0,2.0,91,0.00,,,0.00,Wunderground v.1.15,2013-09-29 05:25:00,
2013-09-29 00:31:00,69.9,67.5,30.03,NNW,338,1.0,1.0,92,0.00,,,0.00,Wunderground v.1.15,2013-09-29 05:31:00,
2013-09-29 00:37:00,69.7,67.3,30.02,North,6,2.0,2.0,92,0.00,,,0.00,Wunderground v.1.15,2013-09-29 05:37:00,
2013-09-29 00:43:00,69.6,67.5,30.02,NNE,13,2.0,2.0,93,0.00,,,0.00,Wunderground v.1.15,2013-09-29 05:43:00,
2013-09-29 00:49:00,69.6,67.5,30.02,NNE,15,0.0,3.0,93,0.00,,,0.00,Wunderground v.1.15,2013-09-29 05:49:00,
2013-09-29 00:55:00,69.6,67.5,30.02,North,9,2.0,2.0,93,0.00,,,0.00,Wunderground v.1.15,2013-09-29 05:55:00,
2013-09-29 01:00:00,69.5,67.4,30.02,NNE,13,1.0,1.0,93,0.00,,,0.00,Wunderground v.1.15,2013-09-29 06:00:00,
2013-09-29 01:06:00,69.4,67.3,30.02,NNE,25,0.0,2.0,93,0.00,,,0.00,Wunderground v.1.15,2013-09-29 06:06:00,
2013-09-29 01:12:00,69.2,67.4,30.01,North,9,3.0,3.0,94,0.00,,,0.00,Wunderground v.1.15,2013-09-29 06:12:00,
2013-09-29 01:18:00,69.1,67.3,30.01,NNE,12,0.0,3.0,94,0.00,,,0.00,Wunderground v.1.15,2013-09-29 06:18:00,
2013-09-29 01:24:00,69.0,67.2,30.01,North,1,2.0,3.0,94,0.00,,,0.00,Wunderground v.1.15,2013-09-29 06:24:00,
2013-09-29 01:30:00,68.9,67.1,30.01,North,1,1.0,1.0,94,0.00,,,0.00,Wunderground v.1.15,2013-09-29 06:30:00,
2013-09-29 01:36:00,68.9,67.1,30.01,North,352,1.0,2.0,94,0.00,,,0.00,Wunderground v.1.15,2013-09-29 06:36:00,
2013-09-29 01:41:00,68.8,67.3,30.01,North,352,1.0,1.0,95,0.00,,,0.00,Wunderground v.1.15,2013-09-29 06:41:00,
2013-09-29 01:47:00,68.8,67.3,30.01,NE,36,1.0,2.0,95,0.00,,,0.00,Wunderground v.1.15,2013-09-29 06:47:00,
2013-09-29 01:53:00,68.7,67.2,30.01,North,6,1.0,1.0,95,0.00,,,0.00,Wunderground v.1.15,2013-09-29 06:53:00,
2013-09-29 01:59:00,68.7,67.2,30.01,North,350,2.0,2.0,95,0.00,,,0.00,Wunderground v.1.15,2013-09-29 06:59:00,
2013-09-29 02:04:00,68.6,67.1,30.01,North,352,0.0,2.0,95,0.00,,,0.00,Wunderground v.1.15,2013-09-29 07:04:00,
2013-09-29 02:09:00,68.5,67.0,30.01,North,354,1.0,2.0,95,0.00,,,0.00,Wunderground v.1.15,2013-09-29 07:09:00,
2013-09-29 02:14:00,68.4,66.9,30.01,North,8,2.0,3.0,95,0.00,,,0.00,Wunderground v.1.15,2013-09-29 07:14:00,
2013-09-29 02:19:00,68.3,66.8,30.01,North,11,3.0,3.0,95,0.00,,,0.00,Wunderground v.1.15,2013-09-29 07:19:00,
2013-09-29 02:24:00,68.2,66.7,30.01,North,4,2.0,3.0,95,0.00,,,0.00,Wunderground v.1.15,2013-09-29 07:24:00,
2013-09-29 02:29:00,68.1,66.6,30.01,NNE,15,1.0,3.0,95,0.00,,,0.00,Wunderground v.1.15,2013-09-29 07:29:00,
2013-09-29 02:34:00,68.1,66.3,30.00,NNW,340,2.0,3.0,94,0.00,,,0.00,Wunderground v.1.15,2013-09-29 07:34:00,
2013-09-29 02:39:00,68.0,66.2,30.01,North,1,2.0,4.0,94,0.00,,,0.00,Wunderground v.1.15,2013-09-29 07:39:00,
2013-09-29 02:44:00,68.0,66.2,30.01,North,6,1.0,3.0,94,0.00,,,0.00,Wunderground v.1.15,2013-09-29 07:44:00,
2013-09-29 02:49:00,67.9,66.1,30.01,North,354,2.0,3.0,94,0.00,,,0.00,Wunderground v.1.15,2013-09-29 07:49:00,
2013-09-29 02:54:00,67.8,66.0,30.00,NNE,15,2.0,6.0,94,0.00,,,0.00,Wunderground v.1.15,2013-09-29 07:54:00,
2013-09-29 02:59:00,67.7,65.9,30.00,NNE,15,2.0,6.0,94,0.00,,,0.00,Wunderground v.1.15,2013-09-29 07:59:00,
2013-09-29 03:04:00,67.7,65.9,30.00,North,1,3.0,4.0,94,0.00,,,0.00,Wunderground v.1.15,2013-09-29 08:04:00,
2013-09-29 03:09:00,67.6,65.8,30.00,NNE,32,2.0,4.0,94,0.00,,,0.00,Wunderground v.1.15,2013-09-29 08:09:00,
2013-09-29 03:14:00,67.6,65.8,30.00,NE,34,2.0,4.0,94,0.00,,,0.00,Wunderground v.1.15,2013-09-29 08:14:00,
2013-09-29 03:19:00,67.6,65.8,30.00,North,1,2.0,4.0,94,0.00,,,0.00,Wunderground v.1.15,2013-09-29 08:19:00,
2013-09-29 03:24:00,67.6,65.5,30.00,North,8,1.0,4.0,93,0.00,,,0.00,Wunderground v.1.15,2013-09-29 08:24:00,
2013-09-29 03:29:00,67.6,65.5,30.00,North,9,1.0,4.0,93,0.00,,,0.00,Wunderground v.1.15,2013-09-29 08:29:00,
2013-09-29 03:34:00,67.5,65.4,30.00,North,1,3.0,4.0,93,0.00,,,0.00,Wunderground v.1.15,2013-09-29 08:34:00,
2013-09-29 03:39:00,67.5,65.7,30.00,North,349,1.0,5.0,94,0.00,,,0.00,Wunderground v.1.15,2013-09-29 08:39:00,
2013-09-29 03:44:00,67.3,65.5,29.99,NE,51,1.0,2.0,94,0.00,,,0.00,Wunderground v.1.15,2013-09-29 08:44:00,
2013-09-29 03:49:00,67.3,65.5,29.99,NNE,20,3.0,3.0,94,0.00,,,0.00,Wunderground v.1.15,2013-09-29 08:49:00,
2013-09-29 03:54:00,67.3,65.5,29.99,NE,48,0.0,3.0,94,0.00,,,0.00,Wunderground v.1.15,2013-09-29 08:54:00,
2013-09-29 03:59:00,67.3,65.5,29.99,NNE,18,3.0,4.0,94,0.00,,,0.00,Wunderground v.1.15,2013-09-29 08:59:00,
2013-09-29 04:04:00,67.3,65.5,29.99,NE,44,1.0,3.0,94,0.00,,,0.00,Wunderground v.1.15,2013-09-29 09:04:00,
2013-09-29 04:10:00,67.3,65.5,29.99,NE,56,0.0,1.0,94,0.00,,,0.00,Wunderground v.1.15,2013-09-29 09:10:00,
2013-09-29 04:15:00,67.3,65.5,29.99,NE,56,1.0,3.0,94,0.00,,,0.00,Wunderground v.1.15,2013-09-29 09:15:00,
2013-09-29 04:20:00,67.3,65.2,29.99,North,354,1.0,1.0,93,0.00,,,0.00,Wunderground v.1.15,2013-09-29 09:20:00,
2013-09-29 04:25:00,67.3,65.2,29.99,NE,39,1.0,3.0,93,0.00,,,0.00,Wunderground v.1.15,2013-09-29 09:25:00,
2013-09-29 04:30:00,67.3,65.2,29.99,North,359,1.0,1.0,93,0.00,,,0.00,Wunderground v.1.15,2013-09-29 09:30:00,
2013-09-29 04:35:00,67.3,65.2,29.99,ENE,57,1.0,2.0,93,0.00,,,0.00,Wunderground v.1.15,2013-09-29 09:35:00,
2013-09-29 04:40:00,67.3,65.2,29.99,ENE,62,2.0,2.0,93,0.00,,,0.00,Wunderground v.1.15,2013-09-29 09:40:00,
2013-09-29 04:45:00,67.3,65.2,29.99,North,352,0.0,3.0,93,0.00,,,0.00,Wunderground v.1.15,2013-09-29 09:45:00,
2013-09-29 04:50:00,67.4,65.3,29.99,ENE,64,0.0,1.0,93,0.00,,,0.00,Wunderground v.1.15,2013-09-29 09:50:00,
2013-09-29 04:55:00,67.4,65.3,29.99,NNE,25,1.0,2.0,93,0.00,,,0.00,Wunderground v.1.15,2013-09-29 09:55:00,
2013-09-29 05:00:00,67.5,65.4,29.99,North,354,1.0,2.0,93,0.00,,,0.00,Wunderground v.1.15,2013-09-29 10:00:00,
2013-09-29 05:05:00,67.6,65.5,29.99,NNE,12,0.0,2.0,93,0.00,,,0.00,Wunderground v.1.15,2013-09-29 10:05:00,
2013-09-29 05:10:00,67.7,65.6,29.99,North,8,2.0,2.0,93,0.00,,,0.00,Wunderground v.1.15,2013-09-29 10:10:00,
2013-09-29 05:15:00,67.7,65.6,29.99,NE,53,2.0,2.0,93,0.00,,,0.00,Wunderground v.1.15,2013-09-29 10:15:00,
2013-09-29 05:20:00,67.8,65.7,29.99,NE,52,0.0,1.0,93,0.00,,,0.00,Wunderground v.1.15,2013-09-29 10:20:00,
2013-09-29 05:25:00,67.9,65.8,29.99,NNE,30,1.0,2.0,93,0.00,,,0.00,Wunderground v.1.15,2013-09-29 10:25:00,
2013-09-29 05:30:00,67.9,65.8,29.99,NE,51,0.0,1.0,93,0.00,,,0.00,Wunderground v.1.15,2013-09-29 10:30:00,
2013-09-29 05:35:00,67.9,65.8,29.99,ENE,67,1.0,3.0,93,0.00,,,0.00,Wunderground v.1.15,2013-09-29 10:35:00,
2013-09-29 05:40:00,67.9,65.8,30.00,ENE,77,1.0,1.0,93,0.00,,,0.00,Wunderground v.1.15,2013-09-29 10:40:00,
2013-09-29 05:45:00,68.0,65.9,30.00,ENE,78,0.0,1.0,93,0.00,,,0.00,Wunderground v.1.15,2013-09-29 10:45:00,
2013-09-29 05:50:00,68.1,66.0,30.00,ENE,78,0.0,0.0,93,0.00,,,0.00,Wunderground v.1.15,2013-09-29 10:50:00,
2013-09-29 05:55:00,68.1,66.0,30.00,ENE,72,0.0,2.0,93,0.00,,,0.00,Wunderground v.1.15,2013-09-29 10:55:00,
2013-09-29 06:00:00,68.2,65.8,30.00,NE,50,1.0,2.0,92,0.00,,,0.00,Wunderground v.1.15,2013-09-29 11:00:00,
2013-09-29 06:05:00,68.2,65.8,30.00,NE,49,0.0,2.0,92,0.00,,,0.00,Wunderground v.1.15,2013-09-29 11:05:00,
2013-09-29 06:10:00,68.1,65.7,30.00,NE,50,0.0,1.0,92,0.00,,,0.00,Wunderground v.1.15,2013-09-29 11:10:00,
2013-09-29 06:16:00,68.0,65.9,30.00,NNE,12,1.0,2.0,93,0.00,,,0.00,Wunderground v.1.15,2013-09-29 11:16:00,
2013-09-29 06:21:00,67.9,65.8,30.00,NNE,26,1.0,2.0,93,0.00,,,0.00,Wunderground v.1.15,2013-09-29 11:21:00,
2013-09-29 06:26:00,67.9,65.8,30.00,NE,56,1.0,2.0,93,0.00,,,0.00,Wunderground v.1.15,2013-09-29 11:26:00,
2013-09-29 06:31:00,67.8,65.7,30.00,NNE,33,0.0,2.0,93,0.00,,,0.00,Wunderground v.1.15,2013-09-29 11:31:00,
2013-09-29 06:36:00,67.6,65.5,30.00,North,6,2.0,2.0,93,0.00,,,0.00,Wunderground v.1.15,2013-09-29 11:36:00,
2013-09-29 06:41:00,67.5,65.4,30.00,North,360,1.0,2.0,93,0.00,,,0.00,Wunderground v.1.15,2013-09-29 11:41:00,
2013-09-29 06:46:00,67.3,65.5,30.00,NE,55,0.0,2.0,94,0.00,,,0.00,Wunderground v.1.15,2013-09-29 11:46:00,
2013-09-29 06:51:00,67.1,65.3,30.00,East,81,1.0,2.0,94,0.00,,,0.00,Wunderground v.1.15,2013-09-29 11:51:00,
2013-09-29 06:56:00,67.0,65.2,30.00,ENE,61,0.0,2.0,94,0.00,,,0.00,Wunderground v.1.15,2013-09-29 11:56:00,
2013-09-29 07:01:00,66.9,65.1,30.00,ENE,64,0.0,1.0,94,0.00,,,0.00,Wunderground v.1.15,2013-09-29 12:01:00,
2013-09-29 07:06:00,66.8,65.0,30.00,NE,43,0.0,2.0,94,0.00,,,0.00,Wunderground v.1.15,2013-09-29 12:06:00,
2013-09-29 07:11:00,66.7,64.9,30.00,ENE,63,1.0,2.0,94,0.00,,,0.00,Wunderground v.1.15,2013-09-29 12:11:00,
2013-09-29 07:16:00,66.9,65.4,30.00,NNE,15,1.0,3.0,95,0.00,,,0.00,Wunderground v.1.15,2013-09-29 12:16:00,
2013-09-29 07:21:00,67.2,65.4,30.00,North,356,1.0,2.0,94,0.00,,,0.00,Wunderground v.1.15,2013-09-29 12:21:00,
2013-09-29 07:26:00,67.7,65.9,30.00,NE,46,1.0,2.0,94,0.00,,,0.00,Wunderground v.1.15,2013-09-29 12:26:00,
2013-09-29 07:31:00,68.0,65.9,30.00,NE,36,1.0,2.0,93,0.00,,,0.00,Wunderground v.1.15,2013-09-29 12:31:00,
2013-09-29 07:36:00,68.4,66.0,30.00,North,6,1.0,3.0,92,0.00,,,0.00,Wunderground v.1.15,2013-09-29 12:36:00,
2013-09-29 07:41:00,68.7,66.3,30.00,North,349,2.0,2.0,92,0.00,,,0.00,Wunderground v.1.15,2013-09-29 12:41:00,
2013-09-29 07:46:00,69.0,66.3,30.01,NE,44,2.0,4.0,91,0.00,,,0.00,Wunderground v.1.15,2013-09-29 12:46:00,
2013-09-29 07:51:00,69.3,66.6,30.01,NE,54,1.0,5.0,91,0.00,,,0.00,Wunderground v.1.15,2013-09-29 12:51:00,
2013-09-29 07:56:00,69.7,66.6,30.01,NNE,22,1.0,5.0,90,0.00,,,0.00,Wunderground v.1.15,2013-09-29 12:56:00,
2013-09-29 08:01:00,70.1,67.0,30.01,North,11,1.0,2.0,90,0.00,,,0.00,Wunderground v.1.15,2013-09-29 13:01:00,
2013-09-29 08:06:00,70.0,66.9,30.01,North,352,0.0,3.0,90,0.00,,,0.00,Wunderground v.1.15,2013-09-29 13:06:00,
2013-09-29 08:11:00,70.1,67.0,30.01,North,4,2.0,2.0,90,0.00,,,0.00,Wunderground v.1.15,2013-09-29 13:11:00,
2013-09-29 08:16:00,70.5,67.4,30.01,ENE,65,1.0,5.0,90,0.00,,,0.00,Wunderground v.1.15,2013-09-29 13:16:00,
2013-09-29 08:21:00,71.1,67.7,30.01,NNE,18,3.0,3.0,89,0.00,,,0.00,Wunderground v.1.15,2013-09-29 13:21:00,
2013-09-29 08:26:00,71.5,67.8,30.02,North,6,1.0,5.0,88,0.00,,,0.00,Wunderground v.1.15,2013-09-29 13:26:00,
2013-09-29 08:31:00,71.9,68.2,30.01,North,360,3.0,3.0,88,0.00,,,0.00,Wunderground v.1.15,2013-09-29 13:31:00,
2013-09-29 08:36:00,72.5,68.4,30.01,NE,52,3.0,4.0,87,0.00,,,0.00,Wunderground v.1.15,2013-09-29 13:36:00,
2013-09-29 08:41:00,73.0,68.6,30.02,ENE,62,1.0,3.0,86,0.00,,,0.00,Wunderground v.1.15,2013-09-29 13:41:00,
2013-09-29 08:46:00,73.7,69.2,30.02,ENE,74,3.0,4.0,86,0.00,,,0.00,Wunderground v.1.15,2013-09-29 13:46:00,
2013-09-29 08:51:00,74.2,69.1,30.02,NNE,32,2.0,4.0,84,0.00,,,0.00,Wunderground v.1.15,2013-09-29 13:51:00,
2013-09-29 08:56:00,74.6,69.1,30.02,North,6,2.0,5.0,83,0.00,,,0.00,Wunderground v.1.15,2013-09-29 13:56:00,
2013-09-29 09:01:00,75.0,69.5,30.01,NE,34,0.0,3.0,83,0.00,,,0.00,Wunderground v.1.15,2013-09-29 14:01:00,
2013-09-29 09:06:00,75.5,69.3,30.02,East,82,4.0,5.0,81,0.00,,,0.00,Wunderground v.1.15,2013-09-29 14:06:00,
2013-09-29 09:11:00,75.6,69.7,30.02,ENE,63,6.0,6.0,82,0.00,,,0.00,Wunderground v.1.15,2013-09-29 14:11:00,
2013-09-29 09:16:00,75.8,69.9,30.02,East,87,4.0,6.0,82,0.00,,,0.00,Wunderground v.1.15,2013-09-29 14:16:00,
2013-09-29 09:21:00,76.1,70.2,30.02,NE,53,2.0,3.0,82,0.00,,,0.00,Wunderground v.1.15,2013-09-29 14:21:00,
2013-09-29 09:26:00,76.4,70.1,30.02,East,79,3.0,4.0,81,0.00,,,0.00,Wunderground v.1.15,2013-09-29 14:26:00,
2013-09-29 09:31:00,76.6,70.3,30.02,NE,51,1.0,5.0,81,0.00,,,0.00,Wunderground v.1.15,2013-09-29 14:31:00,
2013-09-29 09:36:00,77.1,70.8,30.02,ENE,57,2.0,5.0,81,0.00,,,0.00,Wunderground v.1.15,2013-09-29 14:36:00,
2013-09-29 09:41:00,77.5,70.5,30.02,NE,50,2.0,5.0,79,0.00,,,0.00,Wunderground v.1.15,2013-09-29 14:41:00,
2013-09-29 09:46:00,77.9,70.9,30.02,East,98,4.0,6.0,79,0.00,,,0.00,Wunderground v.1.15,2013-09-29 14:46:00,
2013-09-29 09:51:00,77.6,70.6,30.02,East,96,8.0,10.0,79,0.00,,,0.00,Wunderground v.1.15,2013-09-29 14:51:00,
2013-09-29 09:56:00,77.6,70.6,30.02,East,88,4.0,10.0,79,0.00,,,0.00,Wunderground v.1.15,2013-09-29 14:56:00,
2013-09-29 10:01:00,77.7,71.0,30.02,East,79,2.0,6.0,80,0.00,,,0.00,Wunderground v.1.15,2013-09-29 15:01:00,
2013-09-29 10:06:00,78.3,71.2,30.02,ENE,74,6.0,8.0,79,0.00,,,0.00,Wunderground v.1.15,2013-09-29 15:06:00,
2013-09-29 10:11:00,78.4,71.0,30.02,East,96,7.0,11.0,78,0.00,,,0.00,Wunderground v.1.15,2013-09-29 15:11:00,
2013-09-29 10:16:00,78.1,70.7,30.02,East,94,8.0,11.0,78,0.00,,,0.00,Wunderground v.1.15,2013-09-29 15:16:00,
2013-09-29 10:21:00,77.8,70.8,30.02,East,91,7.0,10.0,79,0.00,,,0.00,Wunderground v.1.15,2013-09-29 15:21:00,
2013-09-29 10:26:00,78.0,71.0,30.02,ESE,110,3.0,12.0,79,0.00,,,0.00,Wunderground v.1.15,2013-09-29 15:26:00,
2013-09-29 10:31:00,78.2,71.2,30.02,NE,50,5.0,8.0,79,0.00,,,0.00,Wunderground v.1.15,2013-09-29 15:31:00,
2013-09-29 10:36:00,78.6,71.2,30.02,ESE,102,9.0,12.0,78,0.00,,,0.00,Wunderground v.1.15,2013-09-29 15:36:00,
2013-09-29 10:41:00,78.4,71.3,30.02,SE,128,7.0,10.0,79,0.00,,,0.00,Wunderground v.1.15,2013-09-29 15:41:00,
2013-09-29 10:46:00,78.5,71.1,30.02,ENE,64,9.0,12.0,78,0.00,,,0.00,Wunderground v.1.15,2013-09-29 15:46:00,
2013-09-29 10:51:00,78.5,70.7,30.02,East,96,7.0,13.0,77,0.00,,,0.00,Wunderground v.1.15,2013-09-29 15:51:00,
2013-09-29 10:56:00,78.5,70.7,30.02,ENE,61,9.0,13.0,77,0.00,,,0.00,Wunderground v.1.15,2013-09-29 15:56:00,
2013-09-29 11:01:00,78.4,70.2,30.02,ESE,103,9.0,13.0,76,0.00,,,0.00,Wunderground v.1.15,2013-09-29 16:01:00,
2013-09-29 11:06:00,78.8,71.7,30.02,ESE,110,7.0,13.0,79,0.00,,,0.00,Wunderground v.1.15,2013-09-29 16:06:00,
2013-09-29 11:11:00,78.7,70.5,30.02,ENE,62,4.0,9.0,76,0.00,,,0.00,Wunderground v.1.15,2013-09-29 16:11:00,
2013-09-29 11:16:00,78.6,70.8,30.02,ENE,68,3.0,11.0,77,0.00,,,0.00,Wunderground v.1.15,2013-09-29 16:16:00,
2013-09-29 11:21:00,78.1,70.7,30.02,East,85,7.0,9.0,78,0.00,,,0.00,Wunderground v.1.15,2013-09-29 16:21:00,
2013-09-29 11:26:00,78.4,71.0,30.02,SE,142,5.0,11.0,78,0.00,,,0.00,Wunderground v.1.15,2013-09-29 16:26:00,
2013-09-29 11:32:00,79.1,71.6,30.02,ESE,110,7.0,7.0,78,0.00,,,0.00,Wunderground v.1.15,2013-09-29 16:32:00,
2013-09-29 11:37:00,79.2,71.0,30.02,ESE,117,6.0,12.0,76,0.00,,,0.00,Wunderground v.1.15,2013-09-29 16:37:00,
2013-09-29 11:42:00,79.3,70.7,30.02,East,82,9.0,12.0,75,0.00,,,0.00,Wunderground v.1.15,2013-09-29 16:42:00,
2013-09-29 11:47:00,79.4,70.8,30.01,ESE,107,8.0,12.0,75,0.00,,,0.00,Wunderground v.1.15,2013-09-29 16:47:00,
2013-09-29 11:52:00,79.5,71.3,30.01,East,90,6.0,9.0,76,0.00,,,0.00,Wunderground v.1.15,2013-09-29 16:52:00,
2013-09-29 11:57:00,80.0,70.6,30.01,ESE,107,6.0,14.0,73,0.00,,,0.00,Wunderground v.1.15,2013-09-29 16:57:00,
2013-09-29 12:02:00,80.0,71.0,30.01,ENE,74,4.0,9.0,74,0.00,,,0.00,Wunderground v.1.15,2013-09-29 17:02:00,
2013-09-29 12:07:00,80.2,69.5,30.01,ENE,78,8.0,11.0,70,0.00,,,0.00,Wunderground v.1.15,2013-09-29 17:07:00,
2013-09-29 12:12:00,80.1,69.8,30.01,SE,135,9.0,13.0,71,0.00,,,0.00,Wunderground v.1.15,2013-09-29 17:12:00,
2013-09-29 12:17:00,80.4,70.5,30.00,East,82,8.0,13.0,72,0.00,,,0.00,Wunderground v.1.15,2013-09-29 17:17:00,
2013-09-29 12:22:00,80.3,70.0,30.00,East,97,9.0,12.0,71,0.00,,,0.00,Wunderground v.1.15,2013-09-29 17:22:00,
2013-09-29 12:27:00,80.3,70.0,30.00,East,79,5.0,14.0,71,0.00,,,0.00,Wunderground v.1.15,2013-09-29 17:27:00,
2013-09-29 12:32:00,80.1,69.8,30.00,East,87,6.0,12.0,71,0.00,,,0.00,Wunderground v.1.15,2013-09-29 17:32:00,
2013-09-29 12:37:00,80.1,69.8,30.00,East,94,6.0,13.0,71,0.00,,,0.00,Wunderground v.1.15,2013-09-29 17:37:00,
2013-09-29 12:42:00,80.2,69.9,30.00,ESE,110,9.0,11.0,71,0.00,,,0.00,Wunderground v.1.15,2013-09-29 17:42:00,
2013-09-29 12:47:00,80.6,70.7,30.00,East,79,7.0,12.0,72,0.00,,,0.00,Wunderground v.1.15,2013-09-29 17:47:00,
2013-09-29 14:04:00,81.2,70.9,29.95,East,94,11.0,11.0,71,0.00,,,0.00,Wunderground v.1.15,2013-09-29 19:04:00,
2013-09-29 14:10:00,81.1,70.8,29.95,ESE,122,6.0,7.0,71,0.00,,,0.00,Wunderground v.1.15,2013-09-29 19:10:00,
2013-09-29 14:15:00,81.5,71.2,29.95,ENE,74,6.0,10.0,71,0.00,,,0.00,Wunderground v.1.15,2013-09-29 19:15:00,
2013-09-29 14:20:00,81.2,70.9,29.95,ESE,122,8.0,8.0,71,0.00,,,0.00,Wunderground v.1.15,2013-09-29 19:20:00,
2013-09-29 14:25:00,81.3,71.0,29.95,ESE,110,7.0,11.0,71,0.00,,,0.00,Wunderground v.1.15,2013-09-29 19:25:00,
2013-09-29 14:30:00,81.4,71.1,29.95,SE,126,7.0,7.0,71,0.00,,,0.00,Wunderground v.1.15,2013-09-29 19:30:00,
2013-09-29 14:35:00,81.5,71.2,29.94,SE,143,5.0,12.0,71,0.00,,,0.00,Wunderground v.1.15,2013-09-29 19:35:00,
2013-09-29 14:40:00,81.6,71.3,29.94,SSE,148,5.0,7.0,71,0.00,,,0.00,Wunderground v.1.15,2013-09-29 19:40:00,
2013-09-29 14:45:00,81.4,71.1,29.94,SE,141,6.0,13.0,71,0.00,,,0.00,Wunderground v.1.15,2013-09-29 19:45:00,
2013-09-29 14:48:00,81.6,72.1,29.94,ESE,112,5.0,13.0,73,0.00,,,0.00,Wunderground v.1.15,2013-09-29 19:48:00,
2013-09-29 14:53:00,81.6,71.3,29.94,ESE,112,4.0,11.0,71,0.00,,,0.00,Wunderground v.1.15,2013-09-29 19:53:00,
2013-09-29 14:58:00,81.2,70.9,29.94,ESE,120,6.0,11.0,71,0.00,,,0.00,Wunderground v.1.15,2013-09-29 19:58:00,
2013-09-29 15:03:00,81.6,71.7,29.94,ESE,122,4.0,9.0,72,0.00,,,0.00,Wunderground v.1.15,2013-09-29 20:03:00,
2013-09-29 15:08:00,81.5,70.8,29.94,SSW,194,8.0,11.0,70,0.00,,,0.00,Wunderground v.1.15,2013-09-29 20:08:00,
2013-09-29 15:13:00,81.4,71.1,29.94,ESE,108,10.0,10.0,71,0.00,,,0.00,Wunderground v.1.15,2013-09-29 20:13:00,
2013-09-29 15:18:00,80.9,70.2,29.94,ESE,120,7.0,10.0,70,0.00,,,0.00,Wunderground v.1.15,2013-09-29 20:18:00,
2013-09-29 15:23:00,81.1,70.8,29.94,East,83,6.0,11.0,71,0.00,,,0.00,Wunderground v.1.15,2013-09-29 20:23:00,
2013-09-29 15:28:00,80.9,70.6,29.94,SE,138,7.0,11.0,71,0.00,,,0.00,Wunderground v.1.15,2013-09-29 20:28:00,
2013-09-29 15:33:00,80.8,70.5,29.93,ESE,113,5.0,8.0,71,0.00,,,0.00,Wunderground v.1.15,2013-09-29 20:33:00,
2013-09-29 15:38:00,80.7,70.4,29.93,ESE,102,6.0,8.0,71,0.00,,,0.00,Wunderground v.1.15,2013-09-29 20:38:00,
2013-09-29 15:43:00,80.8,70.9,29.93,SE,125,3.0,7.0,72,0.00,,,0.00,Wunderground v.1.15,2013-09-29 20:43:00,
2013-09-29 15:48:00,80.8,70.9,29.93,ESE,120,5.0,9.0,72,0.00,,,0.00,Wunderground v.1.15,2013-09-29 20:48:00,
2013-09-29 15:53:00,81.0,71.1,29.93,ESE,122,4.0,7.0,72,0.00,,,0.00,Wunderground v.1.15,2013-09-29 20:53:00,
2013-09-29 15:58:00,81.7,71.4,29.94,SE,136,4.0,7.0,71,0.00,,,0.00,Wunderground v.1.15,2013-09-29 20:58:00,
2013-09-29 16:03:00,82.2,71.4,29.93,SE,131,5.0,7.0,70,0.00,,,0.00,Wunderground v.1.15,2013-09-29 21:03:00,
2013-09-29 16:08:00,82.0,71.2,29.93,SE,145,3.0,7.0,70,0.00,,,0.00,Wunderground v.1.15,2013-09-29 21:08:00,
2013-09-29 16:13:00,81.6,70.9,29.93,SE,128,3.0,8.0,70,0.00,,,0.00,Wunderground v.1.15,2013-09-29 21:13:00,
2013-09-29 16:18:00,81.4,71.1,29.93,South,176,6.0,8.0,71,0.00,,,0.00,Wunderground v.1.15,2013-09-29 21:18:00,
2013-09-29 16:23:00,81.2,70.9,29.93,South,188,3.0,7.0,71,0.00,,,0.00,Wunderground v.1.15,2013-09-29 21:23:00,
2013-09-29 16:28:00,81.0,70.7,29.93,SE,142,3.0,7.0,71,0.00,,,0.00,Wunderground v.1.15,2013-09-29 21:28:00,
2013-09-29 16:33:00,80.8,70.9,29.93,SE,134,3.0,6.0,72,0.00,,,0.00,Wunderground v.1.15,2013-09-29 21:33:00,
2013-09-29 16:38:00,80.7,70.4,29.93,South,191,3.0,6.0,71,0.00,,,0.00,Wunderground v.1.15,2013-09-29 21:38:00,
2013-09-29 16:43:00,80.6,70.7,29.94,SE,146,3.0,4.0,72,0.00,,,0.00,Wunderground v.1.15,2013-09-29 21:43:00,
2013-09-29 16:48:00,80.7,71.2,29.93,SE,134,2.0,4.0,73,0.00,,,0.00,Wunderground v.1.15,2013-09-29 21:48:00,
2013-09-29 16:53:00,80.5,71.4,29.93,ESE,113,2.0,4.0,74,0.00,,,0.00,Wunderground v.1.15,2013-09-29 21:53:00,
2013-09-29 16:58:00,80.3,70.4,29.93,SSE,158,1.0,6.0,72,0.00,,,0.00,Wunderground v.1.15,2013-09-29 21:58:00,
2013-09-29 17:03:00,80.3,70.9,29.93,SSE,152,3.0,5.0,73,0.00,,,0.00,Wunderground v.1.15,2013-09-29 22:03:00,
2013-09-29 17:08:00,80.1,70.7,29.93,South,187,3.0,7.0,73,0.00,,,0.00,Wunderground v.1.15,2013-09-29 22:08:00,
2013-09-29 17:13:00,80.0,70.6,29.93,ESE,117,4.0,7.0,73,0.00,,,0.00,Wunderground v.1.15,2013-09-29 22:13:00,
2013-09-29 17:18:00,80.0,71.0,29.93,SE,132,3.0,7.0,74,0.00,,,0.00,Wunderground v.1.15,2013-09-29 22:18:00,
2013-09-29 17:23:00,79.9,70.5,29.93,SE,138,3.0,7.0,73,0.00,,,0.00,Wunderground v.1.15,2013-09-29 22:23:00,
2013-09-29 17:29:00,79.9,70.9,29.93,SE,126,2.0,7.0,74,0.00,,,0.00,Wunderground v.1.15,2013-09-29 22:29:00,
2013-09-29 17:34:00,80.0,71.0,29.93,SSE,148,2.0,5.0,74,0.00,,,0.00,Wunderground v.1.15,2013-09-29 22:34:00,
2013-09-29 17:39:00,79.9,71.3,29.93,SE,127,2.0,5.0,75,0.00,,,0.00,Wunderground v.1.15,2013-09-29 22:39:00,
2013-09-29 17:44:00,79.9,71.7,29.93,ESE,117,2.0,3.0,76,0.00,,,0.00,Wunderground v.1.15,2013-09-29 22:44:00,
2013-09-29 17:49:00,79.7,71.1,29.94,SE,141,2.0,6.0,75,0.00,,,0.00,Wunderground v.1.15,2013-09-29 22:49:00,
2013-09-29 17:54:00,79.6,71.4,29.94,SE,141,5.0,5.0,76,0.00,,,0.00,Wunderground v.1.15,2013-09-29 22:54:00,
2013-09-29 17:59:00,79.4,71.2,29.94,ESE,103,3.0,9.0,76,0.00,,,0.00,Wunderground v.1.15,2013-09-29 22:59:00,
2013-09-29 18:04:00,79.2,71.0,29.94,ESE,108,4.0,7.0,76,0.00,,,0.00,Wunderground v.1.15,2013-09-29 23:04:00,
2013-09-29 18:09:00,79.2,70.6,29.94,ESE,107,4.0,7.0,75,0.00,,,0.00,Wunderground v.1.15,2013-09-29 23:09:00,
2013-09-29 18:14:00,79.1,70.9,29.94,ESE,110,3.0,6.0,76,0.00,,,0.00,Wunderground v.1.15,2013-09-29 23:14:00,
2013-09-29 18:19:00,79.1,70.9,29.94,ESE,120,3.0,6.0,76,0.00,,,0.00,Wunderground v.1.15,2013-09-29 23:19:00,
2013-09-29 18:24:00,79.1,70.9,29.94,East,90,1.0,6.0,76,0.00,,,0.00,Wunderground v.1.15,2013-09-29 23:24:00,
2013-09-29 18:29:00,79.1,70.5,29.95,East,84,3.0,6.0,75,0.00,,,0.00,Wunderground v.1.15,2013-09-29 23:29:00,
2013-09-29 18:34:00,79.1,70.9,29.95,ENE,76,2.0,3.0,76,0.00,,,0.00,Wunderground v.1.15,2013-09-29 23:34:00,
2013-09-29 18:39:00,79.1,70.5,29.95,ESE,113,3.0,5.0,75,0.00,,,0.00,Wunderground v.1.15,2013-09-29 23:39:00,
2013-09-29 18:44:00,79.1,71.3,29.95,East,82,0.0,4.0,77,0.00,,,0.00,Wunderground v.1.15,2013-09-29 23:44:00,
2013-09-29 18:49:00,78.6,71.5,29.95,ENE,72,0.0,4.0,79,0.00,,,0.00,Wunderground v.1.15,2013-09-29 23:49:00,
2013-09-29 18:54:00,77.6,71.7,29.95,North,352,1.0,2.0,82,0.00,,,0.00,Wunderground v.1.15,2013-09-29 23:54:00,
2013-09-29 18:59:00,76.5,71.3,29.95,North,6,3.0,4.0,84,0.00,,,0.00,Wunderground v.1.15,2013-09-29 23:59:00,
2013-09-29 19:04:00,75.8,71.0,29.95,North,4,2.0,5.0,85,0.00,,,0.00,Wunderground v.1.15,2013-09-30 00:04:00,
2013-09-29 19:09:00,75.5,70.7,29.95,NNE,15,1.0,5.0,85,0.00,,,0.00,Wunderground v.1.15,2013-09-30 00:09:00,
2013-09-29 19:14:00,75.3,70.8,29.95,ENE,70,3.0,4.0,86,0.00,,,0.00,Wunderground v.1.15,2013-09-30 00:14:00,
2013-09-29 19:19:00,75.1,70.6,29.95,North,1,2.0,4.0,86,0.00,,,0.00,Wunderground v.1.15,2013-09-30 00:19:00,
2013-09-29 19:24:00,75.1,70.3,29.96,NNE,15,0.0,3.0,85,0.00,,,0.00,Wunderground v.1.15,2013-09-30 00:24:00,
2013-09-29 19:29:00,74.9,70.1,29.96,North,353,1.0,4.0,85,0.00,,,0.00,Wunderground v.1.15,2013-09-30 00:29:00,
2013-09-29 19:34:00,74.9,70.1,29.96,NNE,13,0.0,2.0,85,0.00,,,0.00,Wunderground v.1.15,2013-09-30 00:34:00,
2013-09-29 19:39:00,74.8,70.0,29.96,NE,47,1.0,4.0,85,0.00,,,0.00,Wunderground v.1.15,2013-09-30 00:39:00,
2013-09-29 19:44:00,74.7,69.5,29.96,North,3,3.0,4.0,84,0.00,,,0.00,Wunderground v.1.15,2013-09-30 00:44:00,
2013-09-29 19:49:00,74.6,69.1,29.96,North,358,1.0,5.0,83,0.00,,,0.00,Wunderground v.1.15,2013-09-30 00:49:00,
2013-09-29 19:54:00,74.6,69.1,29.96,NE,56,2.0,4.0,83,0.00,,,0.00,Wunderground v.1.15,2013-09-30 00:54:00,
2013-09-29 19:59:00,74.6,68.7,29.96,NNW,336,1.0,5.0,82,0.00,,,0.00,Wunderground v.1.15,2013-09-30 00:59:00,
2013-09-29 20:04:00,74.6,68.7,29.96,North,11,2.0,3.0,82,0.00,,,0.00,Wunderground v.1.15,2013-09-30 01:04:00,
2013-09-29 20:09:00,74.6,68.7,29.96,NNE,13,1.0,4.0,82,0.00,,,0.00,Wunderground v.1.15,2013-09-30 01:09:00,
2013-09-29 20:14:00,74.3,68.8,29.96,East,85,0.0,3.0,83,0.00,,,0.01,Wunderground v.1.15,2013-09-30 01:14:00,
2013-09-29 20:19:00,74.0,68.9,29.96,NE,48,2.0,3.0,84,0.00,,,0.01,Wunderground v.1.15,2013-09-30 01:19:00,
2013-09-29 20:24:00,73.7,68.6,29.96,NE,54,1.0,3.0,84,0.00,,,0.01,Wunderground v.1.15,2013-09-30 01:24:00,
2013-09-29 20:29:00,73.6,68.5,29.96,East,98,0.0,3.0,84,0.00,,,0.01,Wunderground v.1.15,2013-09-30 01:29:00,
2013-09-29 20:34:00,73.6,68.5,29.96,NE,51,2.0,3.0,84,0.00,,,0.01,Wunderground v.1.15,2013-09-30 01:34:00,
2013-09-29 20:39:00,73.5,68.7,29.96,ENE,63,1.0,3.0,85,0.00,,,0.01,Wunderground v.1.15,2013-09-30 01:39:00,
2013-09-29 20:44:00,73.4,68.6,29.96,NNW,346,1.0,3.0,85,0.00,,,0.01,Wunderground v.1.15,2013-09-30 01:44:00,
2013-09-29 20:49:00,73.3,68.5,29.96,NNE,12,0.0,3.0,85,0.00,,,0.01,Wunderground v.1.15,2013-09-30 01:49:00,
2013-09-29 20:54:00,73.3,68.5,29.96,NNE,12,0.0,1.0,85,0.00,,,0.01,Wunderground v.1.15,2013-09-30 01:54:00,
2013-09-29 20:59:00,73.3,68.5,29.96,ENE,69,1.0,2.0,85,0.00,,,0.01,Wunderground v.1.15,2013-09-30 01:59:00,
2013-09-29 21:04:00,73.5,68.4,29.96,ENE,72,2.0,3.0,84,0.00,,,0.01,Wunderground v.1.15,2013-09-30 02:04:00,
2013-09-29 21:09:00,73.6,68.1,29.96,ESE,111,0.0,4.0,83,0.00,,,0.01,Wunderground v.1.15,2013-09-30 02:09:00,
2013-09-29 21:14:00,73.7,68.2,29.96,NE,48,2.0,4.0,83,0.00,,,0.01,Wunderground v.1.15,2013-09-30 02:14:00,
2013-09-29 21:19:00,73.9,68.1,29.96,East,82,1.0,5.0,82,0.00,,,0.01,Wunderground v.1.15,2013-09-30 02:19:00,
2013-09-29 21:24:00,74.0,67.8,29.96,East,81,1.0,5.0,81,0.00,,,0.01,Wunderground v.1.15,2013-09-30 02:24:00,
2013-09-29 21:29:00,74.2,68.0,29.96,East,79,2.0,6.0,81,0.00,,,0.01,Wunderground v.1.15,2013-09-30 02:29:00,
2013-09-29 21:34:00,74.2,68.0,29.96,NNW,348,2.0,3.0,81,0.00,,,0.01,Wunderground v.1.15,2013-09-30 02:34:00,
2013-09-29 21:39:00,74.2,67.6,29.96,East,84,0.0,3.0,80,0.00,,,0.01,Wunderground v.1.15,2013-09-30 02:39:00,
2013-09-29 21:44:00,74.3,67.7,29.96,ENE,60,0.0,5.0,80,0.00,,,0.01,Wunderground v.1.15,2013-09-30 02:44:00,
2013-09-29 21:49:00,74.2,67.6,29.96,ENE,68,2.0,5.0,80,0.00,,,0.01,Wunderground v.1.15,2013-09-30 02:49:00,
2013-09-29 21:54:00,74.3,67.4,29.96,ENE,75,1.0,4.0,79,0.00,,,0.01,Wunderground v.1.15,2013-09-30 02:54:00,
2013-09-29 21:59:00,74.4,67.8,29.95,East,80,2.0,4.0,80,0.00,,,0.01,Wunderground v.1.15,2013-09-30 02:59:00,
2013-09-29 22:04:00,74.3,67.4,29.95,ENE,71,2.0,4.0,79,0.00,,,0.01,Wunderground v.1.15,2013-09-30 03:04:00,
2013-09-29 22:09:00,74.4,67.5,29.95,ENE,58,2.0,5.0,79,0.00,,,0.01,Wunderground v.1.15,2013-09-30 03:09:00,
2013-09-29 22:14:00,74.4,67.5,29.95,ENE,68,1.0,3.0,79,0.00,,,0.01,Wunderground v.1.15,2013-09-30 03:14:00,
2013-09-29 22:19:00,74.3,67.7,29.95,ENE,70,1.0,6.0,80,0.00,,,0.01,Wunderground v.1.15,2013-09-30 03:19:00,
2013-09-29 22:24:00,74.3,67.4,29.95,ENE,71,1.0,4.0,79,0.00,,,0.01,Wunderground v.1.15,2013-09-30 03:24:00,
2013-09-29 22:29:00,74.2,67.6,29.95,NE,53,1.0,4.0,80,0.00,,,0.01,Wunderground v.1.15,2013-09-30 03:29:00,
2013-09-29 22:34:00,74.1,67.5,29.95,East,94,4.0,5.0,80,0.00,,,0.01,Wunderground v.1.15,2013-09-30 03:34:00,
2013-09-29 22:39:00,74.1,67.5,29.94,ENE,76,0.0,5.0,80,0.00,,,0.01,Wunderground v.1.15,2013-09-30 03:39:00,
2013-09-29 22:44:00,74.0,67.8,29.94,ENE,65,2.0,4.0,81,0.00,,,0.01,Wunderground v.1.15,2013-09-30 03:44:00,
2013-09-29 22:49:00,73.9,67.7,29.95,ENE,74,3.0,5.0,81,0.00,,,0.01,Wunderground v.1.15,2013-09-30 03:49:00,
2013-09-29 22:54:00,73.8,68.0,29.94,ENE,64,0.0,7.0,82,0.00,,,0.01,Wunderground v.1.15,2013-09-30 03:54:00,
2013-09-29 22:59:00,73.7,67.9,29.94,East,91,1.0,7.0,82,0.00,,,0.01,Wunderground v.1.15,2013-09-30 03:59:00,
2013-09-29 23:01:00,73.7,68.2,29.94,ENE,66,0.0,3.0,83,0.00,,,0.01,Wunderground v.1.15,2013-09-30 04:01:00,
2013-09-29 23:02:00,73.6,68.1,29.94,NNE,15,2.0,3.0,83,0.00,,,0.01,Wunderground v.1.15,2013-09-30 04:02:00,
2013-09-29 23:07:00,73.5,68.4,29.94,East,79,1.0,4.0,84,0.00,,,0.01,Wunderground v.1.15,2013-09-30 04:07:00,
2013-09-29 23:12:00,73.3,68.2,29.94,ENE,78,2.0,3.0,84,0.00,,,0.01,Wunderground v.1.15,2013-09-30 04:12:00,
2013-09-29 23:17:00,73.2,68.1,29.94,ENE,58,0.0,3.0,84,0.00,,,0.01,Wunderground v.1.15,2013-09-30 04:17:00,
2013-09-29 23:22:00,73.1,68.0,29.94,North,356,0.0,1.0,84,0.00,,,0.01,Wunderground v.1.15,2013-09-30 04:22:00,
2013-09-29 23:27:00,72.9,68.1,29.94,North,356,1.0,1.0,85,0.00,,,0.01,Wunderground v.1.15,2013-09-30 04:27:00,
2013-09-29 23:32:00,72.8,68.0,29.94,ENE,71,2.0,2.0,85,0.00,,,0.01,Wunderground v.1.15,2013-09-30 04:32:00,
2013-09-29 23:37:00,72.8,68.0,29.93,ENE,65,1.0,4.0,85,0.00,,,0.01,Wunderground v.1.15,2013-09-30 04:37:00,
2013-09-29 23:42:00,72.7,67.9,29.93,NE,43,0.0,3.0,85,0.00,,,0.01,Wunderground v.1.15,2013-09-30 04:42:00,
2013-09-29 23:47:00,72.8,67.7,29.93,NNE,19,1.0,4.0,84,0.00,,,0.01,Wunderground v.1.15,2013-09-30 04:47:00,
2013-09-29 23:52:00,72.8,67.7,29.93,North,360,1.0,3.0,84,0.00,,,0.01,Wunderground v.1.15,2013-09-30 04:52:00,
2013-09-29 23:57:00,72.8,67.7,29.93,NNW,327,2.0,3.0,84,0.00,,,0.00,Wunderground v.1.15,2013-09-30 04:57:00,